EW5239 Weather Reports


time (UTC)temp
C
wind
direction
speed
KPH
gust
KPH
rain 1hr
cm
rain 24hr
cm
rain mn
cm
humidity
%
barometer
mb
20260901001005 16 166 4.8 8.0 0.00 0.15 0.00 95 1011.9
20260901000505 16 171 3.2 4.8 0.00 0.15 0.00 95 1011.6
20260901000454 16 216 3.2 4.8 0.00 0.18 0.00 97 1013.5
20260831235959 16 228 3.2 6.4 0.00 0.18 0.00 97 1013.7
20260831235504 16 216 4.8 4.8 0.00 0.15 0.00 95 1011.9
20260831235454 16 229 3.2 6.4 0.00 0.18 0.00 97 1013.8
20260831235004 16 218 3.2 3.2 0.00 0.15 0.00 95 1012.0
20260831234954 16 216 3.2 3.2 0.00 0.18 0.00 99 1013.9
20260831234504 16 221 3.2 3.2 0.00 0.15 0.00 95 1012.0
20260831234454 16 212 1.6 3.2 0.00 0.18 0.00 99 1013.8
20260831234005 16 225 1.6 3.2 0.00 0.15 0.00 95 1011.8
20260831233953 16 202 1.6 3.2 0.00 0.18 0.00 98 1013.7
20260831233504 16 270 0.0 3.2 0.00 0.15 0.00 95 1012.0
20260831233454 16 212 1.6 3.2 0.00 0.18 0.00 98 1013.8
20260831233005 16 255 1.6 4.8 0.00 0.15 0.00 95 1011.8
20260831232954 16 227 1.6 4.8 0.00 0.18 0.00 98 1014.0
20260831232505 16 239 3.2 6.4 0.00 0.15 0.00 95 1011.9
20260831232454 16 231 3.2 4.8 0.00 0.18 0.00 98 1014.1
20260831232004 16 223 3.2 6.4 0.00 0.15 0.00 96 1012.1
20260831231505 16 225 3.2 4.8 0.00 0.15 0.00 96 1012.2
20260831231454 16 219 3.2 4.8 0.00 0.18 0.00 98 1014.0
20260831231004 16 231 3.2 4.8 0.00 0.15 0.00 96 1012.2
20260831230954 16 213 3.2 4.8 0.00 0.18 0.00 98 1013.9
20260831230505 16 223 3.2 3.2 0.00 0.15 0.00 96 1012.1
20260831230454 16 202 3.2 3.2 0.00 0.18 0.00 98 1014.1
20260831230005 16 216 3.2 3.2 0.00 0.15 0.00 96 1012.2
20260831230000 16 197 3.2 3.2 0.00 0.18 0.00 98 1014.3
20260831225505 16 213 3.2 3.2 0.00 0.15 0.00 96 1012.3
20260831225455 16 201 3.2 3.2 0.00 0.18 0.00 98 1014.2
20260831224953 16 217 3.2 4.8 0.00 0.18 0.00 98 1014.5
20260831224454 16 211 4.8 4.8 0.00 0.18 0.00 98 1014.2
20260831224005 16 251 4.8 6.4 0.00 0.15 0.00 96 1012.3
20260831223954 16 201 4.8 4.8 0.00 0.18 0.00 98 1014.3
20260831223454 16 219 4.8 6.4 0.00 0.18 0.00 98 1014.5
20260831223005 16 237 4.8 6.4 0.00 0.15 0.00 96 1012.2
20260831222954 16 237 4.8 6.4 0.00 0.18 0.00 98 1014.5
20260831222504 16 233 4.8 9.7 0.00 0.15 0.00 96 1012.5
20260831222454 16 247 4.8 6.4 0.00 0.18 0.00 98 1014.3
20260831222004 16 235 6.4 9.7 0.00 0.15 0.00 96 1012.4
20260831221954 16 248 4.8 6.4 0.00 0.18 0.00 98 1014.5
20260831221505 16 208 4.8 6.4 0.00 0.15 0.00 96 1012.4
20260831221454 16 239 4.8 6.4 0.00 0.18 0.00 98 1014.6
20260831221005 16 149 4.8 6.4 0.00 0.15 0.00 96 1012.5
20260831220954 16 229 3.2 6.4 0.00 0.18 0.00 98 1014.6
20260831220505 16 160 4.8 4.8 0.00 0.15 0.00 96 1012.4
20260831220454 16 213 3.2 4.8 0.00 0.18 0.00 98 1014.4
20260831220006 16 229 4.8 6.4 0.00 0.15 0.00 96 1012.4
20260831220000 16 189 3.2 4.8 0.00 0.18 0.00 98 1014.5
20260831215504 16 239 3.2 6.4 0.00 0.15 0.15 96 1012.4
20260831215454 16 208 3.2 4.8 0.00 0.18 0.18 98 1014.3
20260831215004 16 224 3.2 4.8 0.00 0.15 0.15 96 1012.3
20260831214954 16 236 3.2 3.2 0.00 0.18 0.18 98 1014.3
20260831214505 16 222 4.8 6.4 0.00 0.15 0.15 96 1012.3
20260831214454 16 217 3.2 6.4 0.00 0.18 0.18 98 1014.3
20260831214005 16 228 4.8 6.4 0.00 0.15 0.15 96 1012.2
20260831213955 16 219 4.8 6.4 0.00 0.18 0.18 98 1014.2
20260831213504 16 226 3.2 6.4 0.00 0.15 0.15 96 1012.2
20260831213005 16 222 3.2 3.2 0.00 0.15 0.15 96 1012.1
20260831212954 16 207 1.6 3.2 0.00 0.18 0.18 98 1013.8
20260831212505 16 238 3.2 4.8 0.00 0.15 0.15 96 1012.2
20260831212454 16 227 3.2 4.8 0.00 0.18 0.18 98 1014.3
20260831212005 16 255 3.2 6.4 0.00 0.15 0.15 96 1012.0
20260831211954 16 236 3.2 6.4 0.00 0.18 0.18 98 1014.2
20260831211504 17 247 3.2 6.4 0.00 0.15 0.15 95 1012.0
20260831211454 16 219 3.2 6.4 0.00 0.18 0.18 98 1013.6
20260831211004 17 247 3.2 4.8 0.00 0.15 0.15 95 1012.0
20260831210954 17 215 3.2 3.2 0.00 0.18 0.18 97 1013.8
20260831210505 17 236 4.8 4.8 0.00 0.15 0.15 95 1012.1
20260831210454 17 218 3.2 4.8 0.00 0.18 0.18 97 1014.0
20260831210005 17 238 4.8 6.4 0.00 0.15 0.15 95 1012.4
20260831210000 17 232 4.8 6.4 0.00 0.18 0.18 97 1014.4
20260831205504 17 253 3.2 6.4 0.00 0.15 0.15 95 1012.5
20260831205454 17 234 4.8 6.4 0.00 0.18 0.18 97 1014.1
20260831205005 17 236 1.6 6.4 0.00 0.15 0.15 95 1012.3
20260831204953 17 206 3.2 6.4 0.00 0.18 0.18 97 1014.3
20260831204505 17 225 1.6 3.2 0.00 0.15 0.15 95 1012.2
20260831204454 17 218 1.6 3.2 0.00 0.18 0.18 97 1014.1
20260831204004 17 225 1.6 3.2 0.00 0.15 0.15 95 1012.1
20260831203954 17 220 1.6 3.2 0.00 0.18 0.18 97 1014.0
20260831203504 17 225 0.0 1.6 0.00 0.15 0.15 94 1012.0
20260831203453 17 211 1.6 3.2 0.00 0.18 0.18 97 1014.1
20260831203005 17 239 0.0 1.6 0.00 0.15 0.15 94 1011.9
20260831202954 17 220 1.6 3.2 0.00 0.18 0.18 97 1013.9
20260831202505 17 232 0.0 3.2 0.00 0.15 0.15 94 1012.0
20260831202454 17 181 1.6 3.2 0.00 0.18 0.18 97 1013.9
20260831202005 17 225 0.0 3.2 0.00 0.15 0.15 94 1012.2
20260831201954 17 177 1.6 3.2 0.00 0.18 0.18 97 1014.2
20260831201504 17 225 0.0 3.2 0.00 0.15 0.15 94 1012.1
20260831201454 17 173 0.0 3.2 0.00 0.18 0.18 97 1014.1
20260831201005 17 0 0.0 0.0 0.00 0.15 0.15 94 1012.2
20260831200954 17 199 1.6 3.2 0.00 0.18 0.18 96 1013.9
20260831200505 17 0 0.0 0.0 0.00 0.15 0.15 94 1012.1
20260831200453 17 204 3.2 3.2 0.00 0.18 0.18 96 1014.0
20260831200005 17 0 0.0 0.0 0.00 0.15 0.15 94 1012.2
20260831200000 17 209 1.6 3.2 0.00 0.18 0.18 96 1013.9
20260831195505 17 0 0.0 0.0 0.00 0.15 0.15 94 1012.1
20260831195454 17 204 1.6 3.2 0.00 0.18 0.18 96 1014.0
20260831195004 17 0 0.0 0.0 0.00 0.15 0.15 93 1012.0
20260831194504 17 0 0.0 0.0 0.00 0.15 0.15 93 1012.1
20260831194454 17 223 1.6 3.2 0.00 0.18 0.18 95 1014.0
20260831193954 17 205 0.0 3.2 0.00 0.18 0.18 95 1013.9
20260831193504 17 0 0.0 0.0 0.00 0.15 0.15 93 1012.2
20260831193454 17 197 1.6 3.2 0.00 0.18 0.18 95 1014.0
20260831193005 17 0 0.0 0.0 0.00 0.15 0.15 93 1012.1
20260831192954 17 194 3.2 6.4 0.00 0.18 0.18 95 1014.0
20260831192505 17 225 0.0 1.6 0.00 0.15 0.15 93 1012.1
20260831192454 17 185 3.2 6.4 0.00 0.18 0.18 94 1014.1
20260831192004 17 225 0.0 1.6 0.00 0.15 0.15 92 1012.1
20260831191954 17 175 1.6 4.8 0.00 0.18 0.18 94 1014.2
20260831191504 17 225 0.0 1.6 0.00 0.15 0.15 92 1012.1
20260831191453 17 202 1.6 3.2 0.00 0.18 0.18 94 1013.9
20260831190954 17 206 1.6 3.2 0.00 0.18 0.18 94 1014.0
20260831190454 17 190 1.6 3.2 0.00 0.18 0.18 93 1013.9
20260831190006 17 0 0.0 0.0 0.00 0.15 0.15 92 1012.1
20260831190000 17 204 0.0 3.2 0.00 0.18 0.18 93 1013.8
20260831185504 17 225 0.0 3.2 0.00 0.15 0.15 92 1012.1
20260831185454 17 224 1.6 3.2 0.00 0.18 0.18 93 1014.0
20260831185004 17 236 1.6 3.2 0.00 0.15 0.15 92 1012.1
20260831184505 18 250 1.6 3.2 0.00 0.15 0.15 92 1012.0
20260831184454 17 261 3.2 3.2 0.00 0.18 0.18 94 1014.0
20260831184005 18 261 1.6 3.2 0.00 0.15 0.15 92 1012.0
20260831183954 18 257 3.2 3.2 0.00 0.18 0.18 94 1014.0
20260831182954 18 174 3.2 4.8 0.00 0.18 0.18 94 1014.0
20260831182454 18 181 4.8 6.4 0.00 0.18 0.18 94 1014.0
20260831181954 18 181 6.4 6.4 0.00 0.18 0.18 93 1013.8
20260831181504 18 181 1.6 6.4 0.00 0.15 0.15 92 1011.8
20260831181005 18 181 3.2 6.4 0.00 0.15 0.15 90 1011.7
20260831180954 18 184 4.8 6.4 0.00 0.18 0.18 91 1013.7
20260831180504 19 181 3.2 6.4 0.00 0.15 0.15 90 1011.6
20260831180454 18 181 4.8 6.4 0.00 0.18 0.18 91 1013.5
20260831175505 19 0 0.0 0.0 0.00 0.15 0.15 90 1011.7
20260831175454 19 176 3.2 4.8 0.00 0.18 0.18 91 1013.3
20260831175005 19 0 0.0 0.0 0.00 0.15 0.15 89 1011.4
20260831174954 19 174 3.2 4.8 0.00 0.18 0.18 90 1013.5
20260831174504 19 0 0.0 0.0 0.00 0.15 0.15 89 1011.5
20260831174454 19 177 1.6 3.2 0.00 0.18 0.18 90 1013.3
20260831173954 19 182 1.6 3.2 0.00 0.18 0.18 90 1013.6
20260831173505 19 0 0.0 0.0 0.00 0.15 0.15 89 1011.5
20260831172954 20 204 1.6 6.4 0.00 0.18 0.18 89 1013.5
20260831172453 20 221 3.2 8.0 0.00 0.18 0.18 89 1013.4
20260831172005 20 245 4.8 8.0 0.00 0.15 0.15 87 1011.5
20260831171954 20 229 4.8 8.0 0.00 0.18 0.18 87 1013.4
20260831171504 20 243 4.8 8.0 0.00 0.15 0.15 87 1011.5
20260831171453 20 220 4.8 8.0 0.00 0.18 0.18 87 1013.4
20260831171004 20 259 4.8 8.0 0.00 0.15 0.15 87 1011.4
20260831171001 20 242 4.8 8.0 0.00 0.18 0.18 86 1013.3
20260831170000 20 223 4.8 6.4 0.00 0.18 0.18 86 1013.2
20260831165504 20 203 3.2 6.4 0.00 0.15 0.15 86 1011.2
20260831165005 20 223 3.2 6.4 0.00 0.15 0.15 86 1011.2
20260831164954 20 196 4.8 6.4 0.00 0.18 0.18 86 1013.3
20260831164505 20 240 4.8 8.0 0.00 0.15 0.15 86 1011.3
20260831164454 20 212 4.8 8.0 0.00 0.18 0.18 86 1013.2
20260831163504 20 236 9.7 12.9 0.00 0.15 0.15 86 1011.4
20260831163453 20 236 9.7 14.5 0.00 0.18 0.18 85 1013.4
20260831163005 20 242 8.0 12.9 0.00 0.15 0.15 87 1011.2
20260831162504 20 256 8.0 11.3 0.00 0.15 0.15 87 1011.3
20260831162454 20 231 8.0 12.9 0.00 0.18 0.18 86 1013.2
20260831162004 20 245 8.0 12.9 0.00 0.15 0.15 87 1011.5
20260831161953 20 259 8.0 12.9 0.00 0.18 0.18 86 1013.2
20260831161504 20 245 6.4 12.9 0.00 0.15 0.15 87 1011.4
20260831161454 20 280 8.0 12.9 0.00 0.18 0.18 86 1013.3
20260831161005 20 230 8.0 8.0 0.00 0.15 0.15 87 1011.6
20260831160954 20 233 8.0 11.3 0.00 0.18 0.18 86 1013.4
20260831160504 20 229 8.0 12.9 0.00 0.15 0.15 88 1011.7
20260831160454 20 206 9.7 12.9 0.00 0.18 0.18 86 1013.3
20260831160004 20 233 8.0 12.9 0.00 0.15 0.15 88 1011.5
20260831155504 20 237 8.0 12.9 0.00 0.15 0.15 89 1011.6
20260831155005 20 239 8.0 12.9 0.00 0.15 0.15 90 1011.6
20260831154954 21 239 8.0 12.9 0.00 0.18 0.18 89 1013.4
20260831154504 20 237 4.8 6.4 0.00 0.15 0.15 91 1011.6
20260831154454 20 236 4.8 8.0 0.00 0.18 0.18 90 1013.4
20260831154004 20 229 3.2 4.8 0.00 0.15 0.15 91 1011.6
20260831153954 20 198 3.2 4.8 0.00 0.18 0.18 90 1013.2
20260831153504 20 230 3.2 6.4 0.00 0.15 0.15 91 1011.6
20260831153454 20 215 4.8 8.0 0.00 0.18 0.18 90 1013.5
20260831153005 20 232 4.8 6.4 0.00 0.15 0.15 91 1011.7
20260831152954 20 220 4.8 8.0 0.03 0.18 0.18 89 1013.5
20260831152504 20 233 4.8 8.0 0.00 0.15 0.15 91 1011.6
20260831152454 20 212 4.8 6.4 0.03 0.18 0.18 90 1013.4
20260831152004 20 246 6.4 12.9 0.00 0.15 0.15 92 1011.7
20260831151954 20 234 8.0 12.9 0.03 0.18 0.18 90 1013.4
20260831151504 20 244 8.0 12.9 0.00 0.15 0.15 93 1011.7
20260831151453 20 257 8.0 12.9 0.03 0.18 0.18 92 1013.5
20260831151005 20 237 8.0 11.3 0.00 0.15 0.15 93 1011.7
20260831150454 20 208 8.0 9.7 0.03 0.18 0.18 94 1013.7
20260831150005 20 254 6.4 11.3 0.00 0.15 0.15 94 1011.5
20260831145454 20 205 4.8 8.0 0.03 0.18 0.18 95 1013.6
20260831145004 20 220 4.8 6.4 0.00 0.15 0.15 94 1011.5
20260831144954 20 203 4.8 6.4 0.03 0.18 0.18 95 1013.3
20260831144504 20 204 6.4 11.3 0.00 0.15 0.15 95 1011.5
20260831144453 20 195 6.4 12.9 0.03 0.18 0.18 97 1013.5
20260831143954 20 200 6.4 12.9 0.03 0.18 0.18 97 1013.5
20260831143504 20 227 4.8 6.4 0.00 0.15 0.15 95 1011.6
20260831143004 19 220 3.2 6.4 0.00 0.15 0.15 95 1011.5
20260831142954 19 222 4.8 6.4 0.00 0.15 0.15 97 1013.4
20260831142504 19 185 4.8 11.3 0.00 0.15 0.15 95 1011.5
20260831142453 19 210 6.4 12.9 0.00 0.15 0.15 97 1013.2
20260831142005 19 181 8.0 11.3 0.00 0.15 0.15 95 1011.5
20260831141954 19 188 8.0 12.9 0.00 0.15 0.15 97 1013.3
20260831141504 19 181 8.0 11.3 0.00 0.15 0.15 95 1011.3
20260831141454 19 181 8.0 11.3 0.00 0.15 0.15 97 1013.3
20260831141004 19 162 6.4 11.3 0.00 0.15 0.15 95 1011.3
20260831140454 19 167 6.4 9.7 0.00 0.15 0.15 96 1013.3
20260831140000 19 168 6.4 9.7 0.00 0.15 0.15 96 1013.3
20260831135504 19 174 4.8 6.4 0.03 0.15 0.15 94 1011.6
20260831134954 19 156 4.8 6.4 0.03 0.15 0.15 96 1013.5
20260831134505 19 187 3.2 6.4 0.03 0.15 0.15 94 1011.6
20260831134454 19 164 4.8 6.4 0.03 0.15 0.15 95 1013.6
20260831134004 19 176 3.2 6.4 0.05 0.15 0.15 94 1011.6
20260831133504 19 158 1.6 6.4 0.05 0.15 0.15 94 1011.7
20260831133454 19 161 4.8 6.4 0.10 0.15 0.15 95 1013.7
20260831133004 19 0 0.0 0.0 0.10 0.15 0.15 93 1011.7
20260831132505 19 0 0.0 0.0 0.10 0.15 0.15 93 1011.9
20260831132454 19 199 3.2 4.8 0.10 0.15 0.15 95 1013.7
20260831132004 19 0 0.0 0.0 0.10 0.15 0.15 93 1012.0
20260831130954 19 232 3.2 6.4 0.13 0.15 0.15 94 1013.8
20260831130505 19 248 4.8 6.4 0.13 0.15 0.15 92 1011.9
20260831130004 19 259 4.8 6.4 0.13 0.15 0.15 91 1011.8
20260831130000 19 242 4.8 8.0 0.13 0.15 0.15 93 1013.7
20260831125504 19 266 8.0 9.7 0.10 0.13 0.13 91 1012.0
20260831125454 19 265 8.0 11.3 0.10 0.13 0.13 92 1014.1
20260831125004 19 257 9.7 12.9 0.10 0.13 0.13 90 1012.2
20260831124954 19 275 11.3 14.5 0.10 0.13 0.13 91 1014.0
20260831124505 19 262 12.9 17.7 0.05 0.10 0.10 89 1012.4
20260831124004 19 271 14.5 17.7 0.05 0.10 0.10 89 1012.2
20260831123954 19 261 14.5 17.7 0.05 0.10 0.10 89 1014.1
20260831123454 20 280 14.5 17.7 0.05 0.05 0.05 89 1014.1
20260831123004 20 249 12.9 19.3 0.05 0.05 0.05 88 1012.3
20260831122954 20 272 14.5 19.3 0.05 0.05 0.05 88 1014.1
20260831122505 20 237 11.3 19.3 0.05 0.05 0.05 88 1012.4
20260831122454 20 281 11.3 19.3 0.05 0.05 0.05 88 1014.1
20260831122004 20 234 9.7 12.9 0.05 0.05 0.05 87 1012.2
20260831121954 20 273 9.7 12.9 0.05 0.05 0.05 88 1014.0
20260831121504 20 272 8.0 9.7 0.05 0.05 0.05 87 1012.2
20260831121454 20 245 8.0 9.7 0.05 0.05 0.05 88 1014.2
20260831121004 20 286 6.4 8.0 0.05 0.05 0.05 87 1012.2
20260831120954 20 265 6.4 8.0 0.03 0.03 0.03 88 1014.0
20260831120504 20 240 3.2 6.4 0.03 0.03 0.03 86 1012.2
20260831120453 20 256 3.2 6.4 0.03 0.03 0.03 87 1014.1
20260831120000 20 192 1.6 4.8 0.03 0.03 0.03 86 1014.0
20260831115504 20 223 1.6 4.8 0.03 0.03 0.03 84 1012.0
20260831115453 20 207 3.2 4.8 0.03 0.03 0.03 85 1013.9
20260831115004 20 230 3.2 4.8 0.03 0.03 0.03 83 1012.1
20260831113954 21 228 8.0 12.9 0.00 0.00 0.00 82 1014.0
20260831113504 21 207 8.0 12.9 0.00 0.00 0.00 79 1012.2
20260831113454 21 196 9.7 12.9 0.00 0.00 0.00 79 1013.9
20260831113004 21 201 9.7 14.5 0.00 0.00 0.00 77 1012.0
20260831112954 21 207 9.7 14.5 0.00 0.00 0.00 78 1014.0
20260831112505 21 186 11.3 14.5 0.00 0.00 0.00 76 1012.1
20260831112004 22 185 11.3 14.5 0.00 0.00 0.00 74 1012.1
20260831111954 22 179 11.3 17.7 0.00 0.00 0.00 74 1014.0
20260831111504 22 177 12.9 19.3 0.00 0.00 0.00 73 1012.2
20260831111454 22 185 12.9 19.3 0.00 0.00 0.00 73 1014.1
20260831111004 22 151 19.3 32.2 0.00 0.00 0.00 71 1012.0
20260831110954 22 189 19.3 32.2 0.00 0.00 0.00 71 1013.9
20260831110505 22 169 16.1 32.2 0.00 0.00 0.00 70 1012.0
20260831110454 22 189 17.7 32.2 0.00 0.00 0.00 69 1013.6
20260831110004 23 199 8.0 14.5 0.00 0.00 0.00 72 1011.9
20260831110000 22 181 8.0 22.5 0.00 0.00 0.00 71 1013.5
20260831105504 23 184 8.0 12.9 0.00 0.00 0.00 71 1011.8
20260831105454 23 168 9.7 12.9 0.00 0.00 0.00 70 1013.6
20260831105004 23 177 8.0 12.9 0.00 0.00 0.00 71 1011.8
20260831104505 23 190 4.8 11.3 0.00 0.00 0.00 71 1011.9
20260831104454 23 186 6.4 12.9 0.00 0.00 0.00 70 1013.4
20260831104004 23 200 3.2 6.4 0.00 0.00 0.00 70 1011.8
20260831103954 23 184 4.8 6.4 0.00 0.00 0.00 69 1013.6
20260831103504 23 185 3.2 6.4 0.00 0.00 0.00 70 1011.8
20260831103454 23 189 4.8 6.4 0.00 0.00 0.00 69 1013.7
20260831103004 23 194 3.2 6.4 0.00 0.00 0.00 70 1011.8
20260831102954 23 202 4.8 6.4 0.00 0.00 0.00 68 1013.5
20260831102454 23 196 4.8 6.4 0.00 0.00 0.00 68 1013.5
20260831102004 23 209 4.8 6.4 0.00 0.00 0.00 69 1011.8
20260831101954 23 192 4.8 6.4 0.00 0.00 0.00 67 1013.7
20260831101504 23 197 4.8 8.0 0.00 0.00 0.00 69 1011.8
20260831101454 23 205 4.8 8.0 0.00 0.00 0.00 67 1013.5
20260831101004 23 208 6.4 8.0 0.00 0.00 0.00 68 1011.7
20260831100954 23 213 4.8 8.0 0.00 0.00 0.00 67 1013.5
20260831100504 23 226 4.8 6.4 0.00 0.00 0.00 68 1011.7
20260831100454 23 217 4.8 6.4 0.00 0.00 0.00 67 1013.4
20260831100001 23 207 4.8 6.4 0.00 0.00 0.00 66 1013.4
20260831095504 23 209 4.8 6.4 0.00 0.00 0.00 69 1011.7
20260831095454 23 194 4.8 6.4 0.00 0.00 0.00 67 1013.5
20260831095004 23 220 4.8 11.3 0.00 0.00 0.00 68 1011.6
20260831094954 23 201 4.8 9.7 0.00 0.00 0.00 66 1013.3
20260831094504 23 220 4.8 11.3 0.00 0.00 0.00 69 1011.7
20260831094454 23 209 4.8 9.7 0.00 0.00 0.00 66 1013.4
20260831093954 23 192 3.2 8.0 0.00 0.00 0.00 68 1013.2
20260831093504 23 225 1.6 6.4 0.00 0.00 0.00 71 1011.7
20260831093454 23 183 3.2 8.0 0.00 0.00 0.00 68 1013.3
20260831092954 23 207 3.2 6.4 0.00 0.00 0.00 71 1013.1
20260831092504 23 251 0.0 3.2 0.00 0.00 0.00 74 1011.6
20260831092454 23 238 3.2 6.4 0.00 0.00 0.00 72 1013.4
20260831091954 23 259 3.2 4.8 0.00 0.00 0.00 71 1013.7
20260831091504 23 246 3.2 4.8 0.00 0.00 0.00 71 1011.8
20260831091455 23 243 3.2 4.8 0.00 0.00 0.00 69 1013.6
20260831091004 23 236 3.2 6.4 0.00 0.00 0.00 70 1011.8
20260831090504 23 229 4.8 6.4 0.00 0.00 0.00 68 1012.0
20260831090454 23 214 4.8 4.8 0.00 0.00 0.00 66 1013.6
20260831090005 23 231 3.2 4.8 0.00 0.00 0.00 68 1011.8
20260831090001 23 222 4.8 4.8 0.00 0.00 0.00 66 1013.5
20260831085504 23 224 3.2 6.4 0.00 0.00 0.00 67 1011.8
20260831085454 23 201 4.8 6.4 0.00 0.00 0.00 65 1013.6
20260831084954 23 189 4.8 8.0 0.00 0.00 0.00 65 1013.4
20260831084504 23 200 4.8 8.0 0.00 0.00 0.00 66 1011.9
20260831084454 23 192 4.8 8.0 0.00 0.00 0.00 64 1013.4
20260831084005 23 194 6.4 9.7 0.00 0.00 0.00 66 1011.9
20260831083504 23 201 4.8 9.7 0.00 0.00 0.00 66 1011.8
20260831083454 23 187 4.8 9.7 0.00 0.00 0.00 62 1013.3
20260831082954 23 175 4.8 8.0 0.00 0.00 0.00 62 1013.5
20260831082004 23 200 4.8 8.0 0.00 0.00 0.00 65 1011.9
20260831081954 23 220 6.4 8.0 0.00 0.00 0.00 61 1013.4
20260831081504 23 205 6.4 8.0 0.00 0.00 0.00 65 1011.7
20260831081454 23 206 6.4 9.7 0.00 0.00 0.00 61 1013.5
20260831081004 23 194 8.0 8.0 0.00 0.00 0.00 65 1011.8
20260831080954 23 201 6.4 9.7 0.00 0.00 0.00 61 1013.5
20260831080504 23 189 8.0 9.7 0.00 0.00 0.00 65 1011.8
20260831080454 23 216 8.0 11.3 0.00 0.00 0.00 62 1013.6
20260831080005 23 198 8.0 9.7 0.00 0.00 0.00 65 1011.6
20260831080000 23 206 8.0 11.3 0.00 0.00 0.00 61 1013.3
20260831075503 23 210 6.4 9.7 0.00 0.00 0.00 66 1012.0
20260831075454 23 216 6.4 11.3 0.00 0.00 0.00 62 1013.3
20260831074953 23 232 4.8 11.3 0.00 0.00 0.00 64 1013.2
20260831074504 22 185 4.8 8.0 0.00 0.00 0.00 67 1011.8
20260831074454 23 175 4.8 8.0 0.00 0.00 0.00 64 1013.5
20260831074004 22 182 4.8 8.0 0.00 0.00 0.00 67 1011.7
20260831073954 23 192 4.8 8.0 0.00 0.00 0.00 63 1013.3
20260831073504 22 204 4.8 6.4 0.00 0.00 0.00 67 1011.7
20260831073454 23 209 6.4 6.4 0.00 0.00 0.00 63 1013.6
20260831073004 22 222 4.8 6.4 0.00 0.00 0.00 69 1011.6
20260831072954 22 211 4.8 6.4 0.00 0.00 0.00 65 1013.4
20260831072504 22 190 4.8 4.8 0.00 0.00 0.00 72 1011.7
20260831072454 22 183 4.8 4.8 0.00 0.00 0.00 69 1013.4
20260831071954 22 165 4.8 4.8 0.00 0.00 0.00 71 1013.3
20260831071504 22 200 3.2 4.8 0.00 0.00 0.00 73 1011.9
20260831071454 22 147 3.2 4.8 0.00 0.00 0.00 71 1013.4
20260831071004 21 172 4.8 6.4 0.00 0.00 0.00 75 1011.7
20260831070954 21 154 4.8 8.0 0.00 0.00 0.00 74 1013.3
20260831070503 21 176 6.4 8.0 0.00 0.00 0.00 76 1011.7
20260831070454 21 165 6.4 11.3 0.00 0.00 0.00 73 1013.5
20260831070000 21 179 6.4 11.3 0.00 0.00 0.00 74 1013.5
20260831065504 20 183 6.4 9.7 0.00 0.00 0.00 81 1011.8
20260831065004 20 170 3.2 6.4 0.00 0.00 0.00 84 1011.7
20260831064954 20 162 3.2 6.4 0.00 0.00 0.00 85 1013.5
20260831064454 20 184 3.2 6.4 0.00 0.00 0.00 88 1013.6
20260831064004 20 149 3.2 4.8 0.00 0.00 0.00 87 1012.0
20260831063954 19 160 3.2 4.8 0.00 0.00 0.00 91 1013.7
20260831063503 19 130 3.2 4.8 0.00 0.00 0.00 88 1011.9
20260831063454 19 144 4.8 6.4 0.00 0.00 0.00 92 1013.7
20260831062504 18 158 3.2 6.4 0.00 0.00 0.00 90 1012.0
20260831062454 18 152 3.2 6.4 0.00 0.00 0.00 96 1013.7
20260831061954 18 162 3.2 4.8 0.00 0.00 0.00 97 1014.0
20260831061503 18 174 3.2 4.8 0.00 0.00 0.00 91 1012.1
20260831061454 17 168 4.8 6.4 0.00 0.00 0.00 97 1013.8
20260831061004 17 174 1.6 4.8 0.00 0.00 0.00 92 1012.1
20260831060955 17 175 3.2 6.4 0.00 0.00 0.00 97 1014.1
20260831060504 17 0 0.0 0.0 0.00 0.00 0.00 93 1012.1
20260831060454 17 173 1.6 3.2 0.00 0.00 0.00 97 1013.9
20260831060000 16 165 1.6 3.2 0.00 0.00 0.00 98 1013.9
20260831055504 17 175 1.6 4.8 0.00 0.00 0.00 93 1012.0
20260831055454 16 172 3.2 4.8 0.00 0.00 0.00 98 1014.1
20260831054504 17 181 0.0 4.8 0.00 0.00 0.00 95 1011.9
20260831054454 15 150 3.2 4.8 0.00 0.00 0.00 99 1013.9
20260831054004 16 0 0.0 0.0 0.00 0.00 0.00 96 1012.0
20260831053454 15 125 1.6 3.2 0.00 0.00 0.00 99 1013.9
20260831053004 15 0 0.0 0.0 0.00 0.00 0.00 96 1011.9
20260831052955 14 122 1.6 3.2 0.00 0.00 0.00 99 1014.0
20260831052503 14 0 0.0 0.0 0.00 0.00 0.00 97 1011.9
20260831052454 14 169 1.6 3.2 0.00 0.00 0.00 99 1013.9
20260831051955 14 177 1.6 3.2 0.00 0.00 0.00 99 1013.8
20260831051504 14 0 0.0 0.0 0.00 0.00 0.00 96 1011.9
20260831051454 14 135 0.0 3.2 0.00 0.00 0.00 99 1013.9
20260831050954 13 125 1.6 3.2 0.00 0.00 0.00 99 1013.9
20260831050504 14 0 0.0 0.0 0.00 0.00 0.00 96 1011.7
20260831050455 13 118 1.6 3.2 0.00 0.00 0.00 99 1013.9
20260831050000 13 135 0.0 1.6 0.00 0.00 0.00 99 1013.9
20260831045504 13 0 0.0 0.0 0.00 0.00 0.00 97 1011.9
20260831045455 13 98 0.0 3.2 0.00 0.00 0.00 99 1014.1
20260831045004 13 0 0.0 0.0 0.00 0.00 0.00 97 1011.9
20260831044954 13 98 0.0 3.2 0.00 0.00 0.00 99 1013.9
20260831044504 13 0 0.0 0.0 0.00 0.00 0.00 97 1011.9
20260831044004 13 0 0.0 0.0 0.00 0.00 0.00 97 1011.9
20260831043504 13 0 0.0 0.0 0.00 0.00 0.00 97 1012.0
20260831043004 13 0 0.0 0.0 0.00 0.00 0.00 97 1011.9
20260831042954 13 105 0.0 3.2 0.00 0.00 0.00 99 1014.1
20260831042503 13 0 0.0 0.0 0.00 0.00 0.00 97 1012.1
20260831042455 13 90 0.0 1.6 0.00 0.00 0.00 99 1014.0
20260831042004 13 0 0.0 0.0 0.00 0.00 0.00 96 1012.1
20260831041954 13 0 0.0 0.0 0.00 0.00 0.00 99 1014.0
20260831041504 13 0 0.0 0.0 0.00 0.00 0.00 96 1012.0
20260831041003 13 0 0.0 0.0 0.00 0.00 0.00 96 1012.0
20260831040954 13 0 0.0 0.0 0.00 0.00 0.00 99 1014.0
20260831040504 13 0 0.0 0.0 0.00 0.00 0.00 96 1011.9
20260831040454 13 90 0.0 1.6 0.00 0.00 0.00 99 1014.2
20260831040004 13 0 0.0 0.0 0.00 0.00 0.00 96 1012.1
20260831040001 13 90 0.0 3.2 0.00 0.00 0.00 99 1014.1
20260831035504 13 90 0.0 3.2 0.00 0.00 0.00 96 1012.0
20260831035454 13 85 1.6 3.2 0.00 0.00 0.00 99 1014.1
20260831035004 13 90 0.0 3.2 0.00 0.00 0.00 96 1012.2
20260831034955 13 86 1.6 3.2 0.00 0.00 0.00 99 1014.1
20260831034504 13 0 0.0 0.0 0.00 0.00 0.00 96 1012.1
20260831034455 13 94 0.0 3.2 0.00 0.00 0.00 98 1014.4
20260831034004 13 225 0.0 3.2 0.00 0.00 0.00 96 1012.0
20260831033955 13 171 0.0 3.2 0.00 0.00 0.00 98 1014.0
20260831033504 13 234 1.6 3.2 0.00 0.00 0.00 96 1012.2
20260831033455 12 214 1.6 3.2 0.00 0.00 0.00 98 1014.3
20260831033004 13 238 0.0 3.2 0.00 0.00 0.00 96 1012.0
20260831032954 13 220 1.6 3.2 0.00 0.00 0.00 98 1014.3
20260831032503 13 0 0.0 0.0 0.00 0.00 0.00 96 1012.1
20260831032003 13 0 0.0 0.0 0.00 0.00 0.00 96 1012.1
20260831031954 13 225 1.6 3.2 0.00 0.00 0.00 98 1013.9
20260831031455 13 0 0.0 0.0 0.00 0.00 0.00 98 1014.1
20260831031004 13 0 0.0 0.0 0.00 0.00 0.00 96 1012.0
20260831030503 13 0 0.0 0.0 0.00 0.00 0.00 96 1011.9
20260831030455 13 0 0.0 0.0 0.00 0.00 0.00 98 1014.0
20260831030004 13 0 0.0 0.0 0.00 0.00 0.00 95 1011.9
20260831030001 13 45 0.0 1.6 0.00 0.00 0.00 98 1013.9
20260831025504 13 0 0.0 0.0 0.00 0.00 0.00 95 1012.0
20260831025455 13 83 1.6 3.2 0.00 0.00 0.00 97 1013.9
20260831024503 13 135 0.0 3.2 0.00 0.00 0.00 95 1011.9
20260831024004 13 135 0.0 3.2 0.00 0.00 0.00 95 1011.9
20260831023504 13 0 0.0 0.0 0.00 0.00 0.00 95 1012.1
20260831023455 13 121 0.0 3.2 0.00 0.00 0.00 97 1013.9
20260831023003 13 0 0.0 0.0 0.00 0.00 0.00 95 1012.0
20260831022955 13 0 0.0 0.0 0.00 0.00 0.00 97 1014.0
20260831022455 13 0 0.0 0.0 0.00 0.00 0.00 96 1014.0
20260831022004 13 0 0.0 0.0 0.00 0.00 0.00 94 1012.2
20260831021955 13 0 0.0 0.0 0.00 0.00 0.00 96 1014.3
20260831021503 13 0 0.0 0.0 0.00 0.00 0.00 94 1012.1
20260831021455 13 90 0.0 1.6 0.00 0.00 0.00 96 1014.0
20260831021004 13 0 0.0 0.0 0.00 0.00 0.00 94 1012.1
20260831020954 13 90 0.0 3.2 0.00 0.00 0.00 96 1014.1
20260831020504 13 0 0.0 0.0 0.00 0.00 0.00 94 1012.2
20260831020455 13 90 0.0 3.2 0.00 0.00 0.00 96 1014.3
20260831020003 13 0 0.0 0.0 0.00 0.00 0.00 94 1012.1
20260831020001 13 90 0.0 3.2 0.00 0.00 0.00 96 1014.3
20260831015455 14 90 1.6 3.2 0.00 0.00 0.00 96 1014.3
20260831015004 14 0 0.0 0.0 0.00 0.00 0.00 94 1012.5
20260831014955 13 90 0.0 3.2 0.00 0.00 0.00 95 1014.4
20260831014504 13 0 0.0 0.0 0.00 0.00 0.00 94 1012.3
20260831014455 13 112 0.0 1.6 0.00 0.00 0.00 95 1014.2
20260831014004 13 0 0.0 0.0 0.00 0.00 0.00 94 1012.3
20260831013955 13 135 0.0 1.6 0.00 0.00 0.00 96 1014.5
20260831013504 13 0 0.0 0.0 0.00 0.00 0.00 93 1012.4
20260831013455 13 0 0.0 0.0 0.00 0.00 0.00 96 1014.3
20260831013003 13 0 0.0 0.0 0.00 0.00 0.00 93 1012.4
20260831012955 13 18 0.0 12.9 0.00 0.00 0.00 96 1014.3
20260831012503 13 0 0.0 0.0 0.00 0.00 0.00 93 1012.3
20260831012455 13 10 0.0 12.9 0.00 0.00 0.00 95 1014.2
20260831011955 13 135 0.0 1.6 0.00 0.00 0.00 95 1014.4
20260831011504 14 0 0.0 0.0 0.00 0.00 0.00 94 1012.4
20260831011004 14 0 0.0 0.0 0.00 0.00 0.00 93 1012.2
20260831010956 14 135 0.0 1.6 0.00 0.00 0.00 94 1014.3
20260831010504 14 0 0.0 0.0 0.00 0.00 0.00 93 1012.3
20260831010455 14 0 0.0 0.0 0.00 0.00 0.00 94 1014.1
20260831010004 14 0 0.0 0.0 0.00 0.00 0.00 93 1012.1
20260831010001 14 0 0.0 0.0 0.00 0.00 0.00 94 1014.0
20260831005504 14 0 0.0 0.0 0.00 0.00 0.00 93 1012.2
20260831005455 14 286 0.0 3.2 0.00 0.00 0.00 94 1014.4
20260831005003 14 0 0.0 0.0 0.00 0.00 0.00 93 1012.3
20260831004955 14 291 0.0 3.2 0.00 0.00 0.00 94 1014.2
20260831004504 15 0 0.0 0.0 0.00 0.00 0.00 93 1012.4
20260831004458 15 46 0.0 1.6 0.00 0.00 0.00 94 1014.5
20260831004004 15 0 0.0 0.0 0.00 0.00 0.00 93 1012.5
20260831003956 15 135 0.0 1.6 0.00 0.00 0.00 94 1014.3
20260831003503 15 0 0.0 0.0 0.00 0.00 0.00 93 1012.4
20260831003455 14 135 0.0 1.6 0.00 0.00 0.00 94 1014.5
20260831003004 14 0 0.0 0.0 0.00 0.00 0.00 93 1012.6
20260831002955 14 0 0.0 0.0 0.00 0.00 0.00 94 1014.5
20260831002504 14 0 0.0 0.0 0.00 0.00 0.00 92 1012.5
20260831002004 15 0 0.0 0.0 0.00 0.00 0.00 92 1012.6
20260831001955 14 0 0.0 0.0 0.00 0.00 0.00 94 1014.6
20260831001504 14 0 0.0 0.0 0.00 0.00 0.00 92 1012.6
20260831001455 15 0 0.0 0.0 0.00 0.00 0.00 93 1014.3